Regional Weather Roundup
Issued by NWS

Home | Current Version | Previous Version | Text Only | Print | Product List | Glossary Off
Versions: 1 2 3 4 5 6 7 8 9 10 11 12 13 14 15 16 17 18 19 20 21 22 23 24 25 26 27 28 29 30 31 32 33 34 35 36 37 38 39 40 41 42 43 44 45 46 47 48 49 50

000
ASUS43 KLSX 260507
RWRMO

WEATHER SUMMARY FOR MISSOURI
NATIONAL WEATHER SERVICE SPRINGFIELD MO
1100 PM CST TUE NOV 25 2014

NOTE: "FAIR" INDICATES FEW OR NO CLOUDS BELOW 12,000 FEET WITH NO
       SIGNIFICANT WEATHER AND/OR OBSTRUCTIONS TO VISIBILITY.
       CURRENT SKY AND/OR WEATHER CONDITIONS ARE NOT AVAILABLE FOR
       CHILLICOTHE AND FARMINGTON.

MOZ001>031-035>038-043-044-053-054-260600-
...NORTHERN AND WESTERN MISSOURI...

CITY           SKY/WX    TMP DP  RH WIND       PRES   REMARKS
KANSAS CTY INT CLOUDY    39  22  50 S14       29.99F
KANSAS C DTWN  CLOUDY    41  20  43 S15       30.01F
LEE`S SUMMIT   CLOUDY    36  18  48 S10       30.03F WCI  28
ST JOSEPH      CLOUDY    39  22  50 S15       29.98F
CHILLICOTHE      N/A     33  18  53 SE7       30.07S WCI  27
KIRKSVILLE     PTCLDY    27  20  75 SE7       30.08F WCI  19

$$
MOZ066>068-077>081-088>096-101>105-260600-
...SOUTHWEST MISSOURI...

CITY           SKY/WX    TMP DP  RH WIND       PRES   REMARKS
SPRINGFIELD    PTCLDY    29  20  69 S8        30.10F WCI  21
JOPLIN         PTCLDY    35  21  56 SE8       30.09F WCI  29

$$
MOZ032>034-039>042-045>050-055>058-069>072-260600-
...CENTRAL MISSOURI...

CITY           SKY/WX    TMP DP  RH WIND       PRES   REMARKS
COLUMBIA       PTCLDY    29  17  61 SE7       30.11F WCI  22
JEFFERSON CITY PTCLDY    24  19  81 SE5       30.14F WCI  18
ROLLA          PTCLDY    25  17  72 S7        30.10F WCI  17
SEDALIA        MOCLDY    31  20  63 S9        30.09F WCI  23
WHITEMAN AFB   MOCLDY    33  22  64 S8        30.07F WCI  26
WARRENSBURG    CLOUDY    32  21  64 SE7       30.07S WCI  26
OSAGE BEACH    PTCLDY    27  18  69 S6        30.12F WCI  20

$$
MOZ051-052-059>065-260600-
...EAST CENTRAL MISSOURI...

CITY           SKY/WX    TMP DP  RH WIND       PRES   REMARKS
ST LOUIS INTL  PTCLDY    28  21  75 SE5       30.17F WCI  23
SPIRIT OF STL  CLEAR     25  21  85 CALM      30.16F
ST CHARLES     CLEAR     28  26  92 E3        30.17F

$$
MOZ072>076-082>087-097>100-106>115-260600-
...SOUTH CENTRAL AND SOUTHEAST MISSOURI...

CITY           SKY/WX    TMP DP  RH WIND       PRES   REMARKS
CAPE GIRARDEAU CLEAR     26  24  92 E5        30.19F WCI  20
FARMINGTON     CLEAR     23  21  93 CALM      30.16F
POPLAR BLUFF   CLEAR     27  23  85 CALM      30.17F
WEST PLAINS    CLEAR     25  19  78 CALM      30.14F

$$


USA.gov is the U.S. government's official web portal to all federal, state and local government web resources and services.